GW6069 Weather Reports


time (UTC)temp
F
wind
direction
speed
knots
gust
knots
rain 1hr
in
rain 24hr
in
rain mn
in
humidity
%
barometer
mb
20260507013757 49 352 7.8 9.6 0.00 0.00 0.00 86 1013.2
20260507013030 49 355 6.1 9.6 0.00 0.00 0.00 85 1013.3
20260507012532 49 3 6.1 10.4 0.00 0.00 0.00 85 1013.3
20260507012030 49 352 7.8 10.4 0.00 0.00 0.00 85 1013.0
20260507011530 49 11 7.8 9.6 0.00 0.00 0.00 85 1013.2
20260507011030 49 351 7.8 9.6 0.00 0.00 0.00 85 1013.3
20260507010530 49 6 7.0 8.7 0.00 0.00 0.00 84 1013.2
20260507010032 49 27 7.0 11.3 0.00 0.00 0.00 83 1013.2
20260507005532 50 0 7.0 11.3 0.00 0.00 0.00 83 1013.2
20260507005030 50 8 5.2 10.4 0.00 0.00 0.00 83 1013.1
20260507004531 50 355 7.0 10.4 0.00 0.00 0.00 82 1013.0
20260507004030 50 17 6.1 10.4 0.00 0.00 0.00 81 1012.9
20260507003531 51 12 7.8 9.6 0.00 0.00 0.00 81 1013.0
20260507003301 51 0 7.0 11.3 0.00 0.00 0.00 80 1013.0
20260507002530 51 358 11.3 12.2 0.00 0.00 0.00 80 1012.8
20260507002030 51 9 7.8 13.0 0.00 0.00 0.00 79 1013.0
20260507001528 51 351 8.7 13.0 0.00 0.00 0.00 79 1012.9
20260507001027 51 10 9.6 13.0 0.00 0.00 0.00 79 1013.0
20260507000527 51 5 7.8 11.3 0.00 0.00 0.00 78 1013.1
20260507000027 51 0 7.0 11.3 0.00 0.00 0.00 77 1013.0
20260506235528 51 3 7.8 11.3 0.00 0.00 0.00 77 1013.1
20260506235027 51 29 7.0 11.3 0.00 0.00 0.00 77 1012.9
20260506234525 52 356 8.7 10.4 0.00 0.00 0.00 77 1013.0
20260506234024 52 29 9.6 12.2 0.00 0.00 0.00 76 1012.9
20260506233523 52 26 11.3 13.0 0.00 0.00 0.00 76 1012.7
20260506233025 52 6 7.0 13.0 0.00 0.00 0.00 76 1012.7
20260506232524 52 351 5.2 13.0 0.00 0.00 0.00 76 1012.7
20260506232022 52 2 8.7 13.0 0.00 0.00 0.00 76 1012.6
20260506231522 52 354 9.6 12.2 0.00 0.00 0.00 75 1012.7
20260506231300 52 354 7.0 12.2 0.00 0.00 0.00 75 1012.6
20260506230520 52 5 8.7 12.2 0.00 0.00 0.00 75 1012.6
20260506230019 52 3 6.1 12.2 0.00 0.00 0.00 74 1012.8
20260506225521 52 351 9.6 10.4 0.00 0.00 0.00 75 1012.6
20260506225020 52 13 6.1 9.6 0.00 0.00 0.00 75 1012.6
20260506224753 52 353 7.8 9.6 0.00 0.00 0.00 75 1012.5
20260506224020 52 354 5.2 10.4 0.00 0.00 0.00 75 1012.5
20260506223518 52 9 6.1 11.3 0.00 0.00 0.00 75 1012.4
20260506223016 52 353 9.6 11.3 0.00 0.00 0.00 75 1012.4
20260506222518 52 1 6.1 10.4 0.00 0.00 0.00 76 1012.5
20260506222027 52 10 4.3 6.1 0.00 0.00 0.00 77 1012.4
20260506222023 52 2 5.2 7.0 0.00 0.00 0.00 78 1012.4
20260506221016 52 359 3.5 5.2 0.00 0.00 0.00 77 1012.6
20260506220515 52 357 3.5 5.2 0.00 0.00 0.00 77 1012.4
20260506220017 52 357 3.5 4.3 0.00 0.00 0.00 77 1012.5
20260506215746 52 359 1.7 4.3 0.00 0.00 0.00 77 1012.4
20260506215012 52 350 2.6 2.6 0.00 0.00 0.00 76 1012.5
20260506214513 52 2 1.7 2.6 0.00 0.00 0.00 76 1012.2
20260506214011 53 2 2.6 2.6 0.00 0.00 0.00 75 1012.3
20260506213510 53 352 1.7 2.6 0.00 0.00 0.00 74 1012.2
20260506213009 53 0 1.7 2.6 0.00 0.00 0.00 73 1012.2
20260506212509 53 358 1.7 1.7 0.00 0.00 0.00 73 1012.2
20260506212009 53 0 1.7 1.7 0.00 0.00 0.00 72 1012.1
20260506211509 53 0 1.7 1.7 0.00 0.00 0.00 72 1012.0
20260506211009 53 356 1.7 1.7 0.00 0.00 0.00 72 1011.9
20260506210733 53 0 1.7 1.7 0.00 0.00 0.00 72 1012.0
20260506210009 53 12 1.7 2.6 0.00 0.00 0.00 72 1012.1
20260506205505 53 359 1.7 3.5 0.00 0.00 0.00 72 1012.1
20260506205007 53 0 0.9 3.5 0.00 0.00 0.00 72 1012.0
20260506204504 53 14 1.7 2.6 0.00 0.00 0.00 72 1011.9
20260506204005 53 6 2.6 2.6 0.00 0.00 0.00 71 1011.9
20260506203504 53 41 2.6 3.5 0.00 0.00 0.00 71 1011.8
20260506203006 53 21 1.7 3.5 0.00 0.00 0.00 71 1011.9
20260506202733 53 32 2.6 3.5 0.00 0.00 0.00 71 1012.1
20260506202004 53 30 2.6 3.5 0.00 0.00 0.00 70 1011.9
20260506201504 53 31 2.6 3.5 0.00 0.00 0.00 70 1011.8
20260506201001 53 55 3.5 3.5 0.00 0.00 0.00 70 1011.8
20260506200501 53 23 2.6 3.5 0.00 0.00 0.00 70 1011.7
20260506200000 53 37 2.6 3.5 0.00 0.00 0.00 69 1011.6
20260506195501 53 18 1.7 3.5 0.00 0.00 0.00 69 1011.5
20260506194959 53 52 1.7 3.5 0.00 0.00 0.00 69 1011.5
20260506194459 53 29 1.7 3.5 0.00 0.00 0.00 69 1011.6
20260506194004 53 21 1.7 2.6 0.00 0.00 0.00 68 1011.7
20260506193958 53 43 1.7 3.5 0.00 0.00 0.00 68 1011.5
20260506192958 54 21 2.6 3.5 0.00 0.00 0.00 67 1011.5
20260506192456 54 28 3.5 3.5 0.00 0.00 0.00 67 1011.4
20260506192226 54 9 0.9 3.5 0.00 0.00 0.00 67 1011.3
20260506191455 54 41 2.6 4.3 0.00 0.00 0.00 67 1011.4
20260506190956 54 73 1.7 4.3 0.00 0.00 0.00 66 1011.2
20260506190721 54 45 3.5 4.3 0.00 0.00 0.00 66 1011.1
20260506185954 54 94 1.7 3.5 0.00 0.00 0.00 66 1011.1
20260506185452 54 77 2.6 4.3 0.00 0.00 0.00 65 1010.8
20260506184952 54 79 2.6 4.3 0.00 0.00 0.00 65 1010.8
20260506184726 55 33 1.7 4.3 0.00 0.00 0.00 65 1011.0
20260506183953 55 63 1.7 5.2 0.00 0.00 0.00 65 1010.8
20260506183451 55 73 2.6 5.2 0.00 0.00 0.00 65 1010.8
20260506182951 55 78 2.6 5.2 0.00 0.00 0.00 65 1010.7
20260506182449 55 76 2.6 5.2 0.00 0.00 0.00 64 1010.6
20260506181949 55 66 3.5 5.2 0.00 0.00 0.00 65 1010.5
20260506181725 55 74 5.2 5.2 0.00 0.00 0.00 65 1010.6
20260506180949 55 47 1.7 4.3 0.00 0.00 0.00 65 1010.5
20260506180448 55 51 2.6 4.3 0.00 0.00 0.00 64 1010.5
20260506175947 55 15 2.6 6.1 0.00 0.00 0.00 64 1010.5
20260506175447 55 71 3.5 6.1 0.00 0.00 0.00 64 1010.4
20260506174945 55 78 5.2 5.2 0.00 0.00 0.00 64 1010.4
20260506174717 55 56 2.6 7.8 0.00 0.00 0.00 63 1010.3
20260506173944 56 79 3.5 8.7 0.00 0.00 0.00 63 1010.1
20260506173445 56 58 6.1 8.7 0.00 0.00 0.00 62 1010.2
20260506172945 56 40 3.5 7.8 0.00 0.00 0.00 62 1010.1
20260506172444 56 51 4.3 10.4 0.00 0.00 0.00 62 1010.1
20260506172216 56 8 5.2 13.0 0.00 0.00 0.00 61 1009.9
20260506171441 56 0 6.1 13.0 0.00 0.00 0.00 60 1010.0
20260506170942 56 4 6.1 12.2 0.00 0.00 0.00 59 1010.0
20260506170441 57 22 8.7 12.2 0.00 0.00 0.00 59 1010.0
20260506165939 57 22 7.8 12.2 0.00 0.00 0.00 60 1009.8
20260506165438 57 9 7.0 13.0 0.00 0.00 0.00 60 1009.7
20260506164940 57 22 9.6 13.9 0.00 0.00 0.00 60 1009.8
20260506164438 57 28 11.3 13.9 0.00 0.00 0.00 59 1009.8
20260506163937 57 32 8.7 13.0 0.00 0.00 0.00 59 1009.9
20260506163438 57 11 9.6 13.0 0.00 0.00 0.00 59 1009.7
20260506162933 58 20 8.7 11.3 0.00 0.00 0.00 60 1009.7
20260506162703 58 356 7.8 14.8 0.00 0.00 0.00 60 1009.6
20260506162658 58 7 8.7 11.3 0.00 0.00 0.00 60 1009.6
20260506161432 58 10 7.8 15.6 0.00 0.00 0.00 60 1009.9
20260506160931 58 4 8.7 15.6 0.00 0.00 0.00 59 1009.6
20260506160431 58 7 7.8 15.6 0.00 0.00 0.00 58 1009.6
20260506160202 58 37 10.4 14.8 0.00 0.00 0.00 58 1009.6
20260506155430 58 6 7.8 13.0 0.00 0.00 0.00 57 1009.7
20260506154930 58 356 7.8 13.0 0.00 0.00 0.00 57 1009.8
20260506154433 59 0 7.0 13.0 0.00 0.00 0.00 55 1009.7
20260506153932 59 0 8.7 17.4 0.00 0.00 0.00 57 1009.8
20260506153430 60 13 11.3 17.4 0.00 0.00 0.00 54 1009.7
20260506152931 61 4 9.6 15.6 0.00 0.00 0.00 53 1009.6
20260506152431 61 4 8.7 16.5 0.00 0.00 0.00 53 1009.6
20260506151929 61 12 10.4 17.4 0.00 0.00 0.00 52 1009.6
20260506151659 61 359 6.1 17.4 0.00 0.00 0.00 53 1009.6
20260506150929 61 10 11.3 16.5 0.00 0.00 0.00 52 1009.5
20260506150427 61 20 11.3 13.9 0.00 0.00 0.00 53 1009.4
20260506145926 61 16 7.0 15.6 0.00 0.00 0.00 53 1009.4
20260506145427 61 40 8.7 15.6 0.00 0.00 0.00 49 1009.6
20260506144925 62 12 11.3 14.8 0.00 0.00 0.00 51 1009.3
20260506144424 63 8 10.4 16.5 0.00 0.00 0.00 50 1009.3
20260506144151 64 2 5.2 16.5 0.00 0.00 0.00 49 1009.4
20260506143425 63 9 11.3 14.8 0.00 0.00 0.00 50 1009.2
20260506142923 63 5 10.4 14.8 0.00 0.00 0.00 50 1009.4
20260506142423 62 20 10.4 14.8 0.00 0.00 0.00 52 1009.4
20260506141922 63 9 10.4 14.8 0.00 0.00 0.00 54 1009.4
20260506141421 63 15 7.8 14.8 0.00 0.00 0.00 53 1009.3
20260506140923 63 7 10.4 14.8 0.00 0.00 0.00 54 1009.2
20260506140420 64 16 9.6 14.8 0.00 0.00 0.00 53 1009.4
20260506135920 64 44 5.2 13.0 0.00 0.00 0.00 54 1009.2
20260506135421 64 8 10.4 13.9 0.00 0.00 0.00 52 1009.2
20260506134919 63 11 9.6 14.8 0.00 0.00 0.00 55 1009.2
20260506134651 63 31 10.4 15.6 0.00 0.00 0.00 54 1009.2
20260506134150 63 23 14.8 16.5 0.00 0.00 0.00 56 1009.1
20260506133418 63 357 13.9 16.5 0.00 0.00 0.00 55 1009.3
20260506133150 63 27 8.7 16.5 0.00 0.00 0.00 53 1009.2
20260506132417 63 7 10.4 18.2 0.00 0.00 0.00 55 1009.1
20260506131915 63 31 8.7 24.3 0.00 0.00 0.00 54 1009.2
20260506131648 63 23 14.8 24.3 0.00 0.00 0.00 52 1009.2
20260506130916 64 11 13.9 20.0 0.00 0.00 0.00 54 1009.2
20260506130415 64 0 15.6 20.0 0.00 0.00 0.00 52 1009.1
20260506125912 64 34 13.0 16.5 0.00 0.00 0.00 54 1009.1
20260506125411 64 8 9.6 16.5 0.00 0.00 0.00 55 1008.9
20260506124913 63 9 8.7 17.4 0.00 0.00 0.00 55 1008.9
20260506124640 62 1 8.7 17.4 0.00 0.00 0.00 58 1009.0
20260506124139 62 8 7.8 15.6 0.00 0.00 0.00 60 1009.1
20260506123410 60 4 11.3 16.5 0.00 0.00 0.00 61 1008.9
20260506122909 60 14 10.4 16.5 0.00 0.00 0.00 58 1008.9
20260506122632 59 2 10.4 18.2 0.00 0.00 0.00 60 1009.0
20260506121909 58 0 9.6 18.2 0.00 0.00 0.00 60 1008.9
20260506121409 58 15 16.5 19.1 0.00 0.00 0.00 61 1008.9
20260506120907 58 31 10.4 19.1 0.00 0.00 0.00 62 1008.8
20260506120406 59 13 13.0 22.6 0.00 0.00 0.00 60 1008.9
20260506115906 60 1 14.8 23.5 0.00 0.00 0.00 58 1009.0
20260506115405 62 0 19.1 23.5 0.00 0.00 0.00 55 1009.1
20260506114906 64 28 11.3 20.0 0.00 0.00 0.00 56 1008.8
20260506114405 65 2 14.8 22.6 0.00 0.00 0.00 57 1008.7
20260506113904 64 6 9.6 22.6 0.00 0.00 0.00 56 1008.7
20260506113403 64 12 19.1 21.7 0.00 0.00 0.00 54 1008.7
20260506113136 62 10 8.7 21.7 0.00 0.00 0.00 55 1008.9
20260506112631 61 21 10.4 21.7 0.00 0.00 0.00 59 1008.9
20260506111902 60 7 9.6 18.2 0.00 0.00 0.00 60 1008.9
20260506111401 60 19 14.8 18.2 0.00 0.00 0.00 57 1008.9
20260506110901 59 15 13.9 16.5 0.00 0.00 0.00 63 1008.7
20260506110628 58 10 9.6 15.6 0.00 0.00 0.00 62 1008.7
20260506105901 58 17 12.2 16.5 0.00 0.00 0.00 62 1008.8
20260506105401 58 353 12.2 17.4 0.00 0.00 0.00 61 1008.7
20260506105127 58 18 13.0 17.4 0.00 0.00 0.00 64 1008.8
20260506104400 58 14 10.4 18.2 0.00 0.00 0.00 63 1008.9
20260506103858 57 5 11.3 18.2 0.00 0.00 0.00 64 1008.9
20260506103622 57 354 11.3 17.4 0.00 0.00 0.00 66 1008.9
20260506103126 57 359 15.6 17.4 0.00 0.00 0.00 65 1008.8
20260506102356 57 28 10.4 18.2 0.00 0.00 0.00 66 1008.7
20260506101855 57 17 8.7 18.2 0.00 0.00 0.00 66 1008.7
20260506101355 58 5 13.0 19.1 0.00 0.00 0.00 68 1008.6
20260506100854 58 352 13.0 19.1 0.00 0.00 0.00 68 1008.6
20260506100356 58 5 11.3 18.2 0.00 0.00 0.00 69 1008.7
20260506100125 58 9 13.9 20.0 0.00 0.00 0.00 67 1008.7
20260506095623 58 359 12.2 21.7 0.00 0.00 0.00 67 1008.5
20260506094853 59 349 18.2 21.7 0.00 0.00 0.00 67 1008.5
20260506094628 59 18 17.4 20.0 0.00 0.00 0.00 68 1008.6
20260506093853 59 20 14.8 20.0 0.00 0.00 0.00 67 1008.6
20260506093350 58 354 13.0 16.5 0.00 0.00 0.00 68 1008.6
20260506092850 58 358 10.4 19.1 0.00 0.00 0.00 69 1008.5
20260506092349 58 14 14.8 20.0 0.00 0.00 0.00 69 1008.7
20260506091849 58 2 12.2 20.9 0.00 0.00 0.00 68 1008.6
20260506091623 59 6 19.1 20.9 0.00 0.00 0.00 68 1008.4
20260506090849 59 359 13.0 18.2 0.00 0.00 0.00 71 1008.6
20260506090347 59 2 11.3 16.5 0.00 0.00 0.00 72 1008.4
20260506085848 58 354 12.2 17.4 0.00 0.00 0.00 72 1008.5
20260506085345 58 342 14.8 20.0 0.00 0.00 0.00 73 1008.5
20260506084845 57 354 16.5 20.0 0.00 0.00 0.00 73 1008.4
20260506084345 57 5 12.2 20.0 0.00 0.00 0.00 74 1008.4
20260506083844 57 354 19.1 19.1 0.00 0.00 0.00 77 1008.4
20260506083617 56 353 13.0 19.1 0.00 0.00 0.00 76 1008.5
20260506082843 56 353 11.3 16.5 0.00 0.00 0.00 78 1008.4
20260506082342 56 20 10.4 18.2 0.00 0.00 0.00 78 1008.2
20260506081841 56 5 12.2 18.2 0.00 0.00 0.00 78 1008.3
20260506081342 55 354 11.3 17.4 0.00 0.00 0.00 80 1008.2
20260506080841 55 3 13.9 16.5 0.00 0.00 0.00 78 1008.3
20260506080339 55 12 9.6 15.6 0.00 0.00 0.00 80 1008.5
20260506073336 54 355 12.2 17.4 0.00 0.00 0.00 83 1008.3
20260506072835 54 1 9.6 17.4 0.00 0.00 0.00 82 1008.4
20260506072336 54 0 15.6 17.4 0.00 0.00 0.00 83 1008.3
20260506072102 54 10 12.2 18.2 0.00 0.00 0.00 84 1008.2
20260506071335 53 358 10.4 18.2 0.00 0.00 0.00 84 1008.3
20260506070834 53 352 11.3 15.6 0.00 0.00 0.00 84 1008.2
20260506070332 53 0 8.7 15.6 0.00 0.00 0.00 86 1008.1
20260506062328 51 1 11.3 15.6 0.00 0.00 0.00 91 1008.0
20260506061829 51 6 8.7 15.6 0.00 0.00 0.00 93 1007.9
20260506061329 50 1 8.7 13.0 0.00 0.00 0.00 95 1007.9
20260506061057 50 4 10.4 11.3 0.00 0.00 0.00 97 1007.9
20260506060328 50 356 7.0 12.2 0.00 0.00 0.00 97 1008.0
20260506051323 49 353 12.2 14.8 0.00 0.00 0.00 97 1008.2
20260506050821 49 353 7.8 13.9 0.00 0.00 0.00 96 1007.9
20260506050321 49 9 10.4 13.9 0.00 0.00 0.00 96 1008.2
20260506044818 49 2 10.4 15.6 0.00 0.00 0.00 94 1008.1
20260506044319 49 12 13.0 16.5 0.00 0.00 0.00 93 1008.1
20260506043818 49 358 13.0 16.5 0.00 0.00 0.00 92 1008.0
20260506043319 49 358 12.2 14.8 0.00 0.00 0.00 92 1008.0
20260506042816 49 0 12.2 13.9 0.00 0.00 0.00 91 1008.1
20260506042317 49 4 9.6 14.8 0.00 0.00 0.00 91 1008.1
20260506041816 49 3 11.3 14.8 0.00 0.00 0.00 91 1008.1
20260506041315 49 353 9.6 15.6 0.00 0.00 0.00 90 1008.0
20260506040813 49 11 7.8 16.5 0.00 0.00 0.00 89 1008.0
20260506040314 49 8 11.3 16.5 0.00 0.00 0.00 88 1007.9
20260506035813 50 10 9.6 14.8 0.00 0.00 0.00 87 1008.1
20260506035313 50 17 10.4 14.8 0.00 0.00 0.00 87 1008.0
20260506034811 50 8 10.4 17.4 0.00 0.00 0.00 87 1008.0
20260506034312 50 22 13.0 17.4 0.00 0.00 0.00 86 1008.1
20260506033813 50 17 12.2 15.6 0.00 0.00 0.00 86 1008.2
20260506033807 50 352 7.8 15.6 0.00 0.00 0.00 86 1008.2
20260506032809 50 2 7.8 13.9 0.00 0.00 0.00 86 1008.2
20260506032309 50 353 13.9 18.2 0.00 0.00 0.00 86 1008.0
20260506031806 50 357 18.2 18.2 0.00 0.00 0.00 86 1008.3
20260506031306 49 359 13.9 16.5 0.00 0.00 0.00 86 1008.3
20260506030806 49 352 11.3 16.5 0.00 0.00 0.00 86 1008.2
20260506030307 49 10 11.3 15.6 0.00 0.00 0.00 86 1008.1
20260506025805 49 350 8.7 16.5 0.00 0.00 0.00 86 1008.3
20260506025306 49 8 10.4 16.5 0.00 0.00 0.00 86 1008.3
20260506025032 49 353 11.3 13.9 0.00 0.00 0.00 87 1008.4
20260506024305 49 0 10.4 13.9 0.00 0.00 0.00 87 1008.4
20260506023805 49 7 13.9 14.8 0.00 0.00 0.00 87 1008.4
20260506023530 49 348 12.2 14.8 0.00 0.00 0.00 87 1008.4
20260506022803 49 353 9.6 14.8 0.00 0.00 0.00 87 1008.5
20260506022531 49 348 11.3 15.6 0.00 0.00 0.00 87 1008.6
20260506021802 49 22 10.4 15.6 0.00 0.00 0.00 87 1008.5
20260506021302 49 12 9.6 15.6 0.00 0.00 0.00 86 1008.5
20260506020800 49 352 10.4 15.6 0.00 0.00 0.00 86 1008.5
20260506020300 49 5 9.6 13.9 0.00 0.00 0.00 86 1008.4
20260506015801 49 4 8.7 13.9 0.00 0.00 0.00 86 1008.5
20260506015259 49 357 8.7 13.9 0.00 0.00 0.00 85 1008.5
20260506014800 49 351 10.4 15.6 0.00 0.00 0.00 85 1008.3
20260506014258 49 347 7.0 15.6 0.00 0.00 0.00 84 1008.4
20260506014027 50 8 12.2 15.6 0.00 0.00 0.00 84 1008.6